Location: Breungeshain
(50.5000°N, 9.2000°E)
Time: 09:48:47
(UTC+00:00)

ISS - Pass Details

Date: 26 May 2017
Orbit: 402 x 409 km, 51.6° (Epoch: 24 May)

Event Time Altitude Azimuth Distance (km) Brightness Sun altitude
Rises 21:19:36 0° 252° (WSW) 2,329 0.2 -13.4°
Reaches altitude 10° 21:21:41 10° 252° (WSW) 1,469 -0.9 -13.6°
Maximum altitude 21:24:59 85° 166° (SSE) 414 -3.9 -13.8°
Drops below altitude 10° 21:28:17 10° 76° (ENE) 1,470 -1.1 -14.1°
Sets 21:30:22 0° 76° (ENE) 2,330 -0.1 -14.2°
